Regional Weather Roundup
Issued by NWS Nashville, TN

Home | Current Version | Previous Version | Text Only | Print | Product List | Glossary On
Versions: 1 2 3 4 5 6 7 8 9 10 11 12 13 14 15 16 17 18 19 20 21 22 23 24 25 26 27 28 29 30 31 32 33 34 35 36 37 38 39 40 41 42 43 44 45 46 47 48 49 50
000
ASUS44 KOHX 061305
RWROHX
MIDDLE TENNESSEE HOURLY WEATHER ROUNDUP
NATIONAL WEATHER SERVICE NASHVILLE TN
800 AM CDT WED MAY 06 2015

NOTE: "FAIR" INDICATES FEW OR NO CLOUDS BELOW 12,000 FEET WITH
NO SIGNIFICANT WEATHER AND/OR OBSTRUCTIONS TO VISIBILITY.

* THESE REPORTS ARE NOT UNDER NWS QUALITY CONTROL AND MAY NOT
  REPORT WEATHER SUCH AS PRECIPITATION AND FOG.


TNZ005>011-023>034-057-059-062>066-078-080-061400
...NORTHERN MIDDLE TENNESSEE...

CITY           SKY/WX    TMP DP  RH WIND       PRES   REMARKS
CLARKSVILLE    PTSUNNY   63  58  83 SE3       30.21R
CROSSVILLE     MOSUNNY   69  53  56 CALM      30.27R
NASHVILLE      MOSUNNY   67  58  72 S3        30.22R
SMYRNA         MOSUNNY   64  60  87 CALM      30.23R
SPARTA         SUNNY     72  59  64 S3        30.23R
$$
TNZ056-058-060-061-075>077-079-093>097-061400
...SOUTHERN MIDDLE TENNESSEE...

CITY           SKY/WX    TMP DP  RH WIND       PRES   REMARKS
COLUMBIA       SUNNY     63  57  82 CALM      30.20S
MCMINNVILLE    CLOUDY    66  63  88 S16       30.24R
SHELBYVILLE    SUNNY     70  61  73 CALM      30.23S
TULLAHOMA      SUNNY     66  55  68 CALM      30.24S
WINCHESTER     SUNNY     66  55  68 SE5       30.24R
$$


...KEY TO REMARKS...
VSB - VISIBILITY IN MILES
WCI - WIND CHILL INDEX
HX  - HEAT INDEX



USA.gov is the U.S. government's official web portal to all federal, state and local government web resources and services.